sat.trackr.live / text

‹ back to catalog

STARLINK-30502

NORAD 57973 · 2023-151K

PAYLOAD ACTIVE UNKNOWN

§ Identity

Operator
Country
US
Launch date
2023-09-30
Launch site
AFETR
Launch vehicle
Mass (kg)
RCS (m²)

Purposes: comms

External: N2YO · Heavens-Above · Gunter

§ Orbital elements

Epoch: 2026-05-25T00:52:28.405632Z

Period
94.27 min
Inclination
43.0038°
Eccentricity
0.0001650
Mean motion
15.27580712 rev/d
Perigee alt
481.9 km
Apogee alt
484.2 km
Semi-major
6,861.2 km
B*
3.3090e-5
RAAN
264.7423°
Arg perigee
274.1692°
Mean anomaly
85.8971°
Rev number
14,744

§ Raw data

STARLINK-305021 57973U 23151K   26145.03643988  .00000648  00000+0  33090-4 0  99982 57973  43.0038 264.7423 0001650 274.1692  85.8971 15.27580712147448

JSON: /api/v1/satellites/57973 · /tle

For live sub-satellite position, see the globe view (requires WebGL).

§ Visibility from observer

Set your observer location to see the next 7 days of passes ≥ 10°. The values pass through the URL so the page stays shareable.

No JS? Fill the form by hand. The geolocation button needs JavaScript.